Time,TemperatureF,DewpointF,PressureIn,WindDirection,WindDirectionDegrees,WindSpeedMPH,WindSpeedGustMPH,Humidity,HourlyPrecipIn,Conditions,Clouds,dailyrainin,SolarRadiationWatts/m^2,SoftwareType,DateUTC
2013-02-28 00:02:00,39.0,33.0,-100.00,WNW,290,9.0,17.0,80,0.02,,,0.06,0.000000,,2013-02-28 05:02:00,
2013-02-28 00:32:00,38.0,29.0,-100.00,WNW,288,9.0,19.0,71,0.00,,,0.05,0.000000,,2013-02-28 05:32:00,
2013-02-28 00:43:00,38.0,29.0,-100.00,WNW,288,9.0,19.0,71,0.00,,,0.05,0.000000,,2013-02-28 05:43:00,
2013-02-28 00:52:00,38.0,29.0,-100.00,WNW,288,9.0,19.0,71,0.00,,,0.05,0.000000,,2013-02-28 05:52:00,
2013-02-28 01:01:00,38.0,29.0,-100.00,WNW,288,9.0,19.0,71,0.00,,,0.05,0.000000,,2013-02-28 06:01:00,
2013-02-28 01:32:00,36.0,27.0,-100.00,SSW,195,3.0,17.0,70,0.00,,,0.03,0.000000,,2013-02-28 06:32:00,
2013-02-28 01:42:00,36.0,27.0,-100.00,SSW,195,3.0,17.0,70,0.00,,,0.03,0.000000,,2013-02-28 06:42:00,
2013-02-28 01:52:00,36.0,27.0,-100.00,SSW,195,3.0,17.0,70,0.00,,,0.03,0.000000,,2013-02-28 06:52:00,
2013-02-28 02:01:00,36.0,27.0,-100.00,SSW,195,3.0,17.0,70,0.00,,,0.03,0.000000,,2013-02-28 07:01:00,
2013-02-28 02:32:00,35.0,28.0,-100.00,NW,304,4.0,11.0,74,0.00,,,0.03,0.000000,,2013-02-28 07:32:00,
2013-02-28 02:42:00,35.0,28.0,-100.00,NW,304,4.0,11.0,74,0.00,,,0.03,0.000000,,2013-02-28 07:42:00,
2013-02-28 02:52:00,35.0,28.0,-100.00,NW,304,4.0,11.0,74,0.00,,,0.03,0.000000,,2013-02-28 07:52:00,
2013-02-28 03:01:00,35.0,28.0,-100.00,NW,304,4.0,11.0,74,0.00,,,0.03,0.000000,,2013-02-28 08:01:00,
2013-02-28 03:32:00,34.0,24.0,-100.00,NW,320,5.0,16.0,67,0.00,,,0.03,0.000000,,2013-02-28 08:32:00,
2013-02-28 03:42:00,34.0,24.0,-100.00,NW,320,5.0,16.0,67,0.00,,,0.03,0.000000,,2013-02-28 08:42:00,
2013-02-28 03:53:00,34.0,24.0,-100.00,NW,320,5.0,16.0,67,0.00,,,0.03,0.000000,,2013-02-28 08:53:00,
2013-02-28 04:03:00,34.0,24.0,-100.00,NW,320,5.0,16.0,67,0.00,,,0.03,0.000000,,2013-02-28 09:03:00,
2013-02-28 04:32:00,33.0,21.0,-100.00,West,270,3.0,20.0,62,0.00,,,0.03,0.000000,,2013-02-28 09:32:00,
2013-02-28 04:42:00,33.0,21.0,-100.00,West,270,3.0,20.0,62,0.00,,,0.03,0.000000,,2013-02-28 09:42:00,
2013-02-28 04:53:00,33.0,21.0,-100.00,West,270,3.0,20.0,62,0.00,,,0.03,0.000000,,2013-02-28 09:53:00,
2013-02-28 05:02:00,33.0,21.0,-100.00,West,270,3.0,20.0,62,0.00,,,0.03,0.000000,,2013-02-28 10:02:00,
2013-02-28 05:32:00,33.0,21.0,-100.00,NW,313,4.0,15.0,62,0.00,,,0.03,0.000000,,2013-02-28 10:32:00,
2013-02-28 05:42:00,33.0,21.0,-100.00,NW,313,4.0,15.0,62,0.00,,,0.03,0.000000,,2013-02-28 10:42:00,
2013-02-28 05:52:00,33.0,21.0,-100.00,NW,313,4.0,15.0,62,0.00,,,0.03,0.000000,,2013-02-28 10:52:00,
2013-02-28 06:02:00,33.0,21.0,-100.00,NW,313,4.0,15.0,62,0.00,,,0.03,0.000000,,2013-02-28 11:02:00,
2013-02-28 06:32:00,33.0,22.0,-100.00,WNW,302,7.0,16.0,64,0.00,,,0.03,0.000000,,2013-02-28 11:32:00,
2013-02-28 06:42:00,33.0,22.0,-100.00,WNW,302,7.0,16.0,64,0.00,,,0.03,0.000000,,2013-02-28 11:42:00,
2013-02-28 06:53:00,33.0,22.0,-100.00,WNW,302,7.0,16.0,64,0.00,,,0.03,0.000000,,2013-02-28 11:53:00,
2013-02-28 07:02:00,33.0,22.0,-100.00,WNW,302,7.0,16.0,64,0.00,,,0.03,0.000000,,2013-02-28 12:02:00,
2013-02-28 07:32:00,32.0,24.0,-100.00,NW,312,5.0,18.0,72,0.00,,,0.03,0.000000,,2013-02-28 12:32:00,
2013-02-28 07:42:00,32.0,24.0,-100.00,NW,312,5.0,18.0,72,0.00,,,0.03,0.000000,,2013-02-28 12:42:00,
2013-02-28 07:53:00,32.0,24.0,-100.00,NW,312,5.0,18.0,72,0.00,,,0.03,0.000000,,2013-02-28 12:53:00,
2013-02-28 08:02:00,32.0,24.0,-100.00,NW,312,5.0,18.0,72,0.00,,,0.03,0.000000,,2013-02-28 13:02:00,
2013-02-28 08:32:00,32.0,27.0,-100.00,WNW,299,4.0,13.0,80,0.00,,,0.03,5.000000,,2013-02-28 13:32:00,
2013-02-28 08:42:00,32.0,27.0,-100.00,WNW,299,4.0,13.0,80,0.00,,,0.03,5.000000,,2013-02-28 13:42:00,
2013-02-28 08:52:00,32.0,27.0,-100.00,WNW,299,4.0,13.0,80,0.00,,,0.03,5.000000,,2013-02-28 13:52:00,
2013-02-28 09:02:00,32.0,27.0,-100.00,WNW,299,4.0,13.0,80,0.00,,,0.03,5.000000,,2013-02-28 14:02:00,
2013-02-28 09:32:00,32.0,27.0,-100.00,WNW,289,8.0,15.0,82,0.00,,,0.03,23.000000,,2013-02-28 14:32:00,
2013-02-28 09:42:00,32.0,27.0,-100.00,WNW,289,8.0,15.0,82,0.00,,,0.03,23.000000,,2013-02-28 14:42:00,
2013-02-28 09:52:00,32.0,27.0,-100.00,WNW,289,8.0,15.0,82,0.00,,,0.03,23.000000,,2013-02-28 14:52:00,
2013-02-28 10:02:00,32.0,27.0,-100.00,WNW,289,8.0,15.0,82,0.00,,,0.03,23.000000,,2013-02-28 15:02:00,
2013-02-28 10:32:00,33.0,25.0,-100.00,West,260,6.0,15.0,73,0.00,,,0.03,76.000000,,2013-02-28 15:32:00,
2013-02-28 10:42:00,33.0,25.0,-100.00,West,260,6.0,15.0,73,0.00,,,0.03,76.000000,,2013-02-28 15:42:00,
2013-02-28 10:52:00,33.0,25.0,-100.00,West,260,6.0,15.0,73,0.00,,,0.03,76.000000,,2013-02-28 15:52:00,
2013-02-28 11:02:00,33.0,25.0,-100.00,West,260,6.0,15.0,73,0.00,,,0.03,76.000000,,2013-02-28 16:02:00,
2013-02-28 11:32:00,33.0,25.0,-100.00,West,276,8.0,17.0,71,0.00,,,0.03,95.000000,,2013-02-28 16:32:00,
2013-02-28 11:43:00,33.0,25.0,-100.00,West,276,8.0,17.0,71,0.00,,,0.03,95.000000,,2013-02-28 16:43:00,
2013-02-28 11:53:00,33.0,25.0,-100.00,West,276,8.0,17.0,71,0.00,,,0.03,95.000000,,2013-02-28 16:53:00,
2013-02-28 12:02:00,33.0,25.0,-100.00,West,276,8.0,17.0,71,0.00,,,0.03,95.000000,,2013-02-28 17:02:00,
2013-02-28 12:32:00,33.0,24.0,-100.00,West,278,4.0,16.0,68,0.00,,,0.03,122.000000,,2013-02-28 17:32:00,
2013-02-28 12:42:00,33.0,24.0,-100.00,West,278,4.0,16.0,68,0.00,,,0.03,122.000000,,2013-02-28 17:42:00,
2013-02-28 12:53:00,33.0,24.0,-100.00,West,278,4.0,16.0,68,0.00,,,0.03,122.000000,,2013-02-28 17:53:00,
2013-02-28 13:02:00,33.0,24.0,-100.00,West,278,4.0,16.0,68,0.00,,,0.03,122.000000,,2013-02-28 18:02:00,
2013-02-28 13:32:00,33.0,24.0,-100.00,NW,309,5.0,15.0,68,0.00,,,0.03,130.000000,,2013-02-28 18:32:00,
2013-02-28 13:42:00,33.0,24.0,-100.00,NW,309,5.0,15.0,68,0.00,,,0.03,130.000000,,2013-02-28 18:42:00,
2013-02-28 13:52:00,33.0,24.0,-100.00,NW,309,5.0,15.0,68,0.00,,,0.03,130.000000,,2013-02-28 18:52:00,
2013-02-28 14:02:00,33.0,24.0,-100.00,NW,309,5.0,15.0,68,0.00,,,0.03,130.000000,,2013-02-28 19:02:00,
2013-02-28 14:32:00,32.0,23.0,-100.00,NW,305,6.0,16.0,70,0.00,,,0.03,116.000000,,2013-02-28 19:32:00,
2013-02-28 14:42:00,32.0,23.0,-100.00,NW,305,6.0,16.0,70,0.00,,,0.03,116.000000,,2013-02-28 19:42:00,
2013-02-28 14:52:00,32.0,23.0,-100.00,NW,305,6.0,16.0,70,0.00,,,0.03,116.000000,,2013-02-28 19:52:00,
2013-02-28 15:01:00,32.0,23.0,-100.00,NW,305,6.0,16.0,70,0.00,,,0.03,116.000000,,2013-02-28 20:01:00,
2013-02-28 15:32:00,31.0,23.0,-100.00,WNW,290,6.0,15.0,71,0.00,,,0.03,95.000000,,2013-02-28 20:32:00,
2013-02-28 15:42:00,31.0,23.0,-100.00,WNW,290,6.0,15.0,71,0.00,,,0.03,95.000000,,2013-02-28 20:42:00,
2013-02-28 15:52:00,31.0,23.0,-100.00,WNW,290,6.0,15.0,71,0.00,,,0.03,95.000000,,2013-02-28 20:52:00,
2013-02-28 16:02:00,31.0,23.0,-100.00,WNW,290,6.0,15.0,71,0.00,,,0.03,95.000000,,2013-02-28 21:02:00,
2013-02-28 16:32:00,32.0,25.0,-100.00,West,280,5.0,12.0,74,0.00,,,0.03,83.000000,,2013-02-28 21:32:00,
2013-02-28 16:42:00,32.0,25.0,-100.00,West,280,5.0,12.0,74,0.00,,,0.03,83.000000,,2013-02-28 21:42:00,
2013-02-28 16:52:00,32.0,25.0,-100.00,West,280,5.0,12.0,74,0.00,,,0.03,83.000000,,2013-02-28 21:52:00,
2013-02-28 17:02:00,32.0,25.0,-100.00,West,280,5.0,12.0,74,0.00,,,0.03,83.000000,,2013-02-28 22:02:00,
2013-02-28 17:32:00,31.0,23.0,-100.00,WNW,284,5.0,17.0,71,0.00,,,0.03,48.000000,,2013-02-28 22:32:00,
2013-02-28 17:42:00,31.0,23.0,-100.00,WNW,284,5.0,17.0,71,0.00,,,0.03,48.000000,,2013-02-28 22:42:00,
2013-02-28 17:52:00,31.0,23.0,-100.00,WNW,284,5.0,17.0,71,0.00,,,0.03,48.000000,,2013-02-28 22:52:00,
2013-02-28 18:02:00,31.0,23.0,-100.00,WNW,284,5.0,17.0,71,0.00,,,0.03,48.000000,,2013-02-28 23:02:00,
2013-02-28 18:32:00,31.0,22.0,-100.00,West,268,3.0,13.0,68,0.00,,,0.03,21.000000,,2013-02-28 23:32:00,
2013-02-28 18:42:00,31.0,22.0,-100.00,West,268,3.0,13.0,68,0.00,,,0.03,21.000000,,2013-02-28 23:42:00,
2013-02-28 18:53:00,31.0,22.0,-100.00,West,268,3.0,13.0,68,0.00,,,0.03,21.000000,,2013-02-28 23:53:00,
2013-02-28 19:02:00,31.0,22.0,-100.00,West,268,3.0,13.0,68,0.00,,,0.03,21.000000,,2013-03-01 00:02:00,
2013-02-28 19:32:00,31.0,22.0,-100.00,North,351,3.0,10.0,69,0.00,,,0.03,2.000000,,2013-03-01 00:32:00,
2013-02-28 19:42:00,31.0,22.0,-100.00,North,351,3.0,10.0,69,0.00,,,0.03,2.000000,,2013-03-01 00:42:00,
2013-02-28 19:52:00,31.0,22.0,-100.00,North,351,3.0,10.0,69,0.00,,,0.03,2.000000,,2013-03-01 00:52:00,
2013-02-28 20:01:00,31.0,22.0,-100.00,North,351,3.0,10.0,69,0.00,,,0.03,2.000000,,2013-03-01 01:01:00,
2013-02-28 20:32:00,30.0,21.0,-100.00,WSW,255,8.0,16.0,70,0.00,,,0.03,0.000000,,2013-03-01 01:32:00,
2013-02-28 20:42:00,30.0,21.0,-100.00,WSW,255,8.0,16.0,70,0.00,,,0.03,0.000000,,2013-03-01 01:42:00,
2013-02-28 20:52:00,30.0,21.0,-100.00,WSW,255,8.0,16.0,70,0.00,,,0.03,0.000000,,2013-03-01 01:52:00,
2013-02-28 21:01:00,30.0,21.0,-100.00,WSW,255,8.0,16.0,70,0.00,,,0.03,0.000000,,2013-03-01 02:01:00,
2013-02-28 21:32:00,30.0,21.0,-100.00,NW,313,4.0,15.0,70,0.00,,,0.03,0.000000,,2013-03-01 02:32:00,
2013-02-28 21:42:00,30.0,21.0,-100.00,NW,313,4.0,15.0,70,0.00,,,0.03,0.000000,,2013-03-01 02:42:00,
2013-02-28 21:52:00,30.0,21.0,-100.00,NW,313,4.0,15.0,70,0.00,,,0.03,0.000000,,2013-03-01 02:52:00,
2013-02-28 22:02:00,30.0,21.0,-100.00,NW,313,4.0,15.0,70,0.00,,,0.03,0.000000,,2013-03-01 03:02:00,
2013-02-28 22:32:00,30.0,22.0,-100.00,NNW,340,4.0,11.0,71,0.00,,,0.02,0.000000,,2013-03-01 03:32:00,
2013-02-28 22:42:00,30.0,22.0,-100.00,NNW,340,4.0,11.0,71,0.00,,,0.02,0.000000,,2013-03-01 03:42:00,
2013-02-28 22:52:00,30.0,22.0,-100.00,NNW,340,4.0,11.0,71,0.00,,,0.02,0.000000,,2013-03-01 03:52:00,
2013-02-28 23:01:00,30.0,22.0,-100.00,NNW,340,4.0,11.0,71,0.00,,,0.02,0.000000,,2013-03-01 04:01:00,
2013-02-28 23:42:00,30.0,21.0,-100.00,West,271,7.0,15.0,69,0.00,,,0.00,0.000000,,2013-03-01 04:42:00,
2013-02-28 23:52:00,30.0,21.0,-100.00,West,271,7.0,15.0,69,0.00,,,0.00,0.000000,,2013-03-01 04:52:00,